Regional Weather Roundup
Issued by NWS

Home | Current Version | Previous Version | Graphics & Text | Print | Product List | Glossary On
Versions: 1 2 3 4 5 6 7 8 9 10 11 12 13 14 15 16 17 18 19 20 21 22 23 24 25 26 27 28 29 30 31 32 33 34 35 36 37 38 39 40 41 42 43 44 45 46 47 48 49 50
000
ASUS45 KSLC 272110
RWRUT

UTAH REGIONAL WEATHER ROUNDUP
NATIONAL WEATHER SERVICE SALT LAKE CITY UT
300 PM MDT WED AUG 27 2014

UTZ001>011-023>025-272200-

NORTHERN UTAH

CITY           SKY/WX    TMP DP  RH WIND       PRES   REMARKS
HILL AFB       PTSUNNY   70  52  52 VRB2      30.24F
LOGAN          SUNNY     74  51  44 SE7       30.20F
OGDEN          PTSUNNY   71  51  49 S6        30.22F
PROVO AIRPORT  MOSUNNY  N/A N/A N/A VRB5      30.25F
SALT LAKE CITY PTSUNNY   72  51  47 N8        30.21F
VERNAL         LGT RAIN  55  51  86 E3        30.26F
WENDOVER       SUNNY     79  45  29 SE8       30.21F
HEBER CITY     CLOUDY    63  48  59 SE3       30.26S
WEST JORDAN    MOSUNNY   73  55  53 NW6       30.24F

$$

UTZ012>022-026-027-272200-

SOUTHERN UTAH

CITY           SKY/WX    TMP DP  RH WIND       PRES   REMARKS
BRYCE CANYON   MOSUNNY   65  41  41 NW16G25   30.38S
CEDAR CITY     SUNNY     75  39  27 MISG      30.27F
MILFORD        MOSUNNY   76  42  29 NE13      30.24F
MOAB/CYNLANDS  MOSUNNY   75  45  34 NW13      30.19F
PRICE          CLOUDY    62  47  57 SE6       30.28F
ST GEORGE      CLOUDY    82  54  36 CALM      30.12F

$$

REGIONAL REPORTS     COLORADO/ARIZONA

CITY           SKY/WX    TMP DP  RH WIND       PRES   REMARKS
CRAIG, CO      TSTM      51  46  83 CALM      30.29R
GRAND JUNCTION PTSUNNY   69  54  58 NW9       30.21F
RIFLE          LGT RAIN  61  52  72 VRB7G17   30.25F
MONTROSE       CLOUDY    68  44  42 W16G23    30.26S THUNDER
CORTEZ         MOSUNNY   68  48  48 CALM      30.28F
PAGE, AZ       MOSUNNY   79  52  38 N12       30.19F
GRAND CANYON   MOSUNNY   72  41  32 SW9       30.35F
KINGMAN        MOSUNNY   89  43  20 SW14G22   30.13F
FLAGSTAFF      MOSUNNY   71  46  40 W9        30.37F

$$

REGIONAL REPORTS    NEVADA/IDAHO/WYOMING

CITY           SKY/WX    TMP DP  RH WIND       PRES   REMARKS
LAS VEGAS, NV  MOSUNNY   92  42  17 SE5       30.02F
ELY            SUNNY     73  40  30 CALM      30.31F
ELKO           SUNNY     79  35  20 VRB5      30.24F
POCATELLO, ID  MOSUNNY   79  40  24 VRB7      30.18F
BURLEY         SUNNY     78  49  35 VRB5      30.16F
EVANSTON, WY   PTSUNNY   59  45  59 VRB3      30.34F
ROCK SPRINGS   LGT RAIN  55  47  74 N8        30.30F

$$


USA.gov is the U.S. government's official web portal to all federal, state and local government web resources and services.